Time,TemperatureF,DewpointF,PressureIn,WindDirection,WindDirectionDegrees,WindSpeedMPH,WindSpeedGustMPH,Humidity,HourlyPrecipIn,Conditions,Clouds,dailyrainin,SoftwareType,DateUTC
2013-02-01 00:00:00,29.3,12.5,29.77,SSE,149,3.1,4.9,49,0.00,,,0.00,VWS V13.01,2013-02-01 05:00:00,
2013-02-01 00:02:00,29.3,12.5,29.77,SSE,149,0.0,3.1,49,0.00,,,0.00,VWS V13.01,2013-02-01 05:02:00,
2013-02-01 00:03:00,29.3,12.5,29.77,SSE,149,0.0,3.1,49,0.00,,,0.00,VWS V13.01,2013-02-01 05:03:00,
2013-02-01 00:08:00,29.1,12.4,29.77,SSE,154,0.0,3.1,49,0.00,,,0.00,VWS V13.01,2013-02-01 05:08:00,
2013-02-01 00:13:00,29.1,12.4,29.77,South,177,0.0,2.7,49,0.00,,,0.00,VWS V13.01,2013-02-01 05:13:00,
2013-02-01 00:18:00,28.9,12.6,29.77,SW,223,0.0,6.3,50,0.00,,,0.00,VWS V13.01,2013-02-01 05:18:00,
2013-02-01 00:23:00,28.9,12.6,29.77,SSE,158,0.0,4.9,50,0.00,,,0.00,VWS V13.01,2013-02-01 05:23:00,
2013-02-01 00:28:00,28.8,12.5,29.77,SSE,152,0.0,4.9,50,0.00,,,0.00,VWS V13.01,2013-02-01 05:28:00,
2013-02-01 00:33:00,28.8,12.9,29.77,SE,132,2.7,3.6,51,0.00,,,0.00,VWS V13.01,2013-02-01 05:33:00,
2013-02-01 00:38:00,28.8,12.9,29.77,SW,230,0.0,4.0,51,0.00,,,0.00,VWS V13.01,2013-02-01 05:38:00,
2013-02-01 00:43:00,28.6,12.8,29.77,SW,225,3.1,3.6,51,0.00,,,0.00,VWS V13.01,2013-02-01 05:43:00,
2013-02-01 00:48:00,28.6,12.8,29.77,SW,230,2.7,5.4,51,0.00,,,0.00,VWS V13.01,2013-02-01 05:48:00,
2013-02-01 00:53:00,28.6,13.2,29.77,SW,230,0.0,0.0,52,0.00,,,0.00,VWS V13.01,2013-02-01 05:53:00,
2013-02-01 00:58:00,28.6,13.2,29.77,SW,229,3.1,3.1,52,0.00,,,0.00,VWS V13.01,2013-02-01 05:58:00,
2013-02-01 01:03:00,28.6,13.2,29.77,SW,229,0.0,2.7,52,0.00,,,0.00,VWS V13.01,2013-02-01 06:03:00,
2013-02-01 01:08:00,28.6,13.2,29.77,South,170,0.0,4.9,52,0.00,,,0.00,VWS V13.01,2013-02-01 06:08:00,
2013-02-01 01:12:00,28.6,13.2,29.77,SE,137,0.0,4.0,52,0.00,,,0.00,VWS V13.01,2013-02-01 06:12:00,
2013-02-01 01:17:00,28.6,13.2,29.77,East,94,0.0,3.6,52,0.00,,,0.00,VWS V13.01,2013-02-01 06:17:00,
2013-02-01 01:22:00,28.6,13.2,29.77,West,261,0.0,3.1,52,0.00,,,0.00,VWS V13.01,2013-02-01 06:22:00,
2013-02-01 01:27:00,28.6,13.2,29.77,South,182,0.0,3.6,52,0.00,,,0.00,VWS V13.01,2013-02-01 06:27:00,
2013-02-01 01:32:00,28.4,13.5,29.77,SW,218,0.0,3.6,53,0.00,,,0.00,VWS V13.01,2013-02-01 06:32:00,
2013-02-01 01:37:00,28.4,13.5,29.77,SW,215,0.0,3.1,53,0.00,,,0.00,VWS V13.01,2013-02-01 06:37:00,
2013-02-01 01:42:00,28.4,13.5,29.77,SSE,153,0.0,4.0,53,0.00,,,0.00,VWS V13.01,2013-02-01 06:42:00,
2013-02-01 01:47:00,28.4,13.5,29.77,SSE,153,2.2,3.1,53,0.00,,,0.00,VWS V13.01,2013-02-01 06:47:00,
2013-02-01 01:52:00,28.4,13.9,29.77,SSW,198,0.0,4.0,54,0.00,,,0.00,VWS V13.01,2013-02-01 06:52:00,
2013-02-01 01:57:00,28.6,14.1,29.77,SSW,197,0.0,0.0,54,0.00,,,0.00,VWS V13.01,2013-02-01 06:57:00,
2013-02-01 02:02:00,28.4,13.9,29.77,SSE,159,0.0,2.7,54,0.00,,,0.00,VWS V13.01,2013-02-01 07:02:00,
2013-02-01 02:07:00,28.4,13.9,29.77,SSE,159,0.0,2.7,54,0.00,,,0.00,VWS V13.01,2013-02-01 07:07:00,
2013-02-01 02:12:00,28.4,14.3,29.77,SSE,159,0.0,2.2,55,0.00,,,0.00,VWS V13.01,2013-02-01 07:12:00,
2013-02-01 02:17:00,28.2,13.7,29.77,SSE,153,0.0,3.1,54,0.00,,,0.00,VWS V13.01,2013-02-01 07:17:00,
2013-02-01 02:22:00,28.2,13.7,29.77,SSE,150,0.0,0.0,54,0.00,,,0.00,VWS V13.01,2013-02-01 07:22:00,
2013-02-01 02:27:00,28.0,13.6,29.77,SSE,150,0.0,0.0,54,0.00,,,0.00,VWS V13.01,2013-02-01 07:27:00,
2013-02-01 02:32:00,28.0,13.6,29.77,SSE,150,0.0,0.0,54,0.00,,,0.00,VWS V13.01,2013-02-01 07:32:00,
2013-02-01 02:37:00,28.0,13.6,29.77,SSE,150,0.0,0.0,54,0.00,,,0.00,VWS V13.01,2013-02-01 07:37:00,
2013-02-01 02:42:00,27.9,13.0,29.77,SSE,165,0.0,2.7,53,0.00,,,0.00,VWS V13.01,2013-02-01 07:42:00,
2013-02-01 02:47:00,27.9,13.4,29.77,SSE,165,0.0,0.0,54,0.00,,,0.00,VWS V13.01,2013-02-01 07:47:00,
2013-02-01 02:52:00,27.9,13.4,29.77,SSE,165,0.0,0.0,54,0.00,,,0.00,VWS V13.01,2013-02-01 07:52:00,
2013-02-01 02:57:00,27.9,14.2,29.77,SSE,165,0.0,2.2,56,0.00,,,0.00,VWS V13.01,2013-02-01 07:57:00,
2013-02-01 03:02:00,27.9,13.4,29.77,SSE,166,0.0,0.0,54,0.00,,,0.00,VWS V13.01,2013-02-01 08:02:00,
2013-02-01 03:07:00,27.9,13.4,29.77,SSE,167,2.7,2.7,54,0.00,,,0.00,VWS V13.01,2013-02-01 08:07:00,
2013-02-01 03:12:00,27.9,13.0,29.77,South,174,2.2,2.7,53,0.00,,,0.00,VWS V13.01,2013-02-01 08:12:00,
2013-02-01 03:17:00,27.9,13.8,29.77,South,174,0.0,0.0,55,0.00,,,0.00,VWS V13.01,2013-02-01 08:17:00,
2013-02-01 03:22:00,27.7,12.8,29.77,South,174,0.0,0.0,53,0.00,,,0.00,VWS V13.01,2013-02-01 08:22:00,
2013-02-01 03:27:00,27.7,13.2,29.77,SW,221,0.0,3.1,54,0.00,,,0.00,VWS V13.01,2013-02-01 08:27:00,
2013-02-01 03:32:00,27.7,13.6,29.77,SW,221,0.0,0.0,55,0.00,,,0.00,VWS V13.01,2013-02-01 08:32:00,
2013-02-01 03:37:00,27.7,13.6,29.77,SW,221,0.0,0.0,55,0.00,,,0.00,VWS V13.01,2013-02-01 08:37:00,
2013-02-01 03:42:00,27.5,13.1,29.77,SW,221,0.0,0.0,54,0.00,,,0.00,VWS V13.01,2013-02-01 08:42:00,
2013-02-01 03:47:00,27.5,13.5,29.77,SW,221,0.0,2.7,55,0.00,,,0.00,VWS V13.01,2013-02-01 08:47:00,
2013-02-01 03:52:00,27.3,13.3,29.77,SW,221,0.0,2.7,55,0.00,,,0.00,VWS V13.01,2013-02-01 08:52:00,
2013-02-01 03:57:00,27.3,13.3,29.77,SW,233,0.0,4.9,55,0.00,,,0.00,VWS V13.01,2013-02-01 08:57:00,
2013-02-01 04:02:00,27.5,13.1,29.77,SW,218,0.0,0.0,54,0.00,,,0.00,VWS V13.01,2013-02-01 09:02:00,
2013-02-01 04:07:00,27.5,13.5,29.77,SW,218,3.1,3.1,55,0.00,,,0.00,VWS V13.01,2013-02-01 09:07:00,
2013-02-01 04:12:00,27.5,13.1,29.77,SSE,148,0.0,2.7,54,0.00,,,0.00,VWS V13.01,2013-02-01 09:12:00,
2013-02-01 04:17:00,27.5,13.1,29.77,SSE,148,0.0,2.2,54,0.00,,,0.00,VWS V13.01,2013-02-01 09:17:00,
2013-02-01 04:22:00,27.5,13.1,29.77,SSW,208,0.0,3.1,54,0.00,,,0.00,VWS V13.01,2013-02-01 09:22:00,
2013-02-01 04:27:00,27.5,13.5,29.77,SSW,195,0.0,0.0,55,0.00,,,0.00,VWS V13.01,2013-02-01 09:27:00,
2013-02-01 04:32:00,27.3,13.3,29.77,SW,226,0.0,2.2,55,0.00,,,0.00,VWS V13.01,2013-02-01 09:32:00,
2013-02-01 04:37:00,27.1,13.1,29.77,SSE,150,0.0,2.2,55,0.00,,,0.00,VWS V13.01,2013-02-01 09:37:00,
2013-02-01 04:42:00,27.1,13.1,29.77,SSE,155,0.0,0.0,55,0.00,,,0.00,VWS V13.01,2013-02-01 09:42:00,
2013-02-01 04:47:00,27.1,13.5,29.77,South,177,0.0,2.7,56,0.00,,,0.00,VWS V13.01,2013-02-01 09:47:00,
2013-02-01 04:52:00,27.1,13.1,29.77,SSE,165,0.0,3.1,55,0.00,,,0.00,VWS V13.01,2013-02-01 09:52:00,
2013-02-01 04:57:00,27.1,13.1,29.77,SSE,163,0.0,0.0,55,0.00,,,0.00,VWS V13.01,2013-02-01 09:57:00,
2013-02-01 05:02:00,27.1,13.1,29.77,South,169,0.0,3.6,55,0.00,,,0.00,VWS V13.01,2013-02-01 10:02:00,
2013-02-01 05:07:00,27.3,13.7,29.77,SSW,206,3.6,3.6,56,0.00,,,0.00,VWS V13.01,2013-02-01 10:07:00,
2013-02-01 05:12:00,27.7,13.2,29.77,SE,142,5.4,5.8,54,0.00,,,0.00,VWS V13.01,2013-02-01 10:12:00,
2013-02-01 05:17:00,27.7,13.6,29.77,East,95,2.7,2.7,55,0.00,,,0.00,VWS V13.01,2013-02-01 10:17:00,
2013-02-01 05:22:00,27.7,13.2,29.77,SSW,192,0.0,3.1,54,0.00,,,0.00,VWS V13.01,2013-02-01 10:22:00,
2013-02-01 05:27:00,27.9,13.4,29.77,South,178,3.1,5.8,54,0.00,,,0.00,VWS V13.01,2013-02-01 10:27:00,
2013-02-01 05:32:00,27.9,13.4,29.80,SSE,150,0.0,3.6,54,0.00,,,0.00,VWS V13.01,2013-02-01 10:32:00,
2013-02-01 05:37:00,27.9,13.8,29.80,South,187,0.0,3.6,55,0.00,,,0.00,VWS V13.01,2013-02-01 10:37:00,
2013-02-01 05:42:00,27.9,13.4,29.80,SW,234,2.7,3.6,54,0.00,,,0.00,VWS V13.01,2013-02-01 10:42:00,
2013-02-01 05:47:00,27.9,13.8,29.80,SSE,151,0.0,3.1,55,0.00,,,0.00,VWS V13.01,2013-02-01 10:47:00,
2013-02-01 05:52:00,27.9,13.4,29.80,SE,141,2.2,4.9,54,0.00,,,0.00,VWS V13.01,2013-02-01 10:52:00,
2013-02-01 05:57:00,28.0,13.6,29.80,SSE,148,3.6,3.6,54,0.00,,,0.00,VWS V13.01,2013-02-01 10:57:00,
2013-02-01 06:02:00,28.0,13.6,29.80,SE,133,0.0,4.0,54,0.00,,,0.00,VWS V13.01,2013-02-01 11:02:00,
2013-02-01 06:07:00,28.2,14.1,29.80,East,87,2.2,4.0,55,0.00,,,0.00,VWS V13.01,2013-02-01 11:07:00,
2013-02-01 06:12:00,28.2,13.7,29.80,ESE,102,0.0,3.1,54,0.00,,,0.00,VWS V13.01,2013-02-01 11:12:00,
2013-02-01 06:17:00,28.2,13.3,29.80,SW,224,2.7,4.9,53,0.00,,,0.00,VWS V13.01,2013-02-01 11:17:00,
2013-02-01 06:22:00,28.0,13.1,29.80,SW,216,0.0,5.8,53,0.00,,,0.00,VWS V13.01,2013-02-01 11:22:00,
2013-02-01 06:27:00,28.0,13.1,29.80,SSE,154,0.0,2.7,53,0.00,,,0.00,VWS V13.01,2013-02-01 11:27:00,
2013-02-01 06:32:00,28.0,13.6,29.80,SSE,163,2.2,2.7,54,0.00,,,0.00,VWS V13.01,2013-02-01 11:32:00,
2013-02-01 06:37:00,28.2,13.7,29.80,SSE,151,0.0,3.1,54,0.00,,,0.00,VWS V13.01,2013-02-01 11:37:00,
2013-02-01 06:42:00,28.0,13.1,29.80,SSE,150,0.0,2.2,53,0.00,,,0.00,VWS V13.01,2013-02-01 11:42:00,
2013-02-01 06:47:00,28.2,13.7,29.83,SSE,159,0.0,2.2,54,0.00,,,0.00,VWS V13.01,2013-02-01 11:47:00,
2013-02-01 06:52:00,28.0,13.1,29.83,SSE,159,2.2,3.1,53,0.00,,,0.00,VWS V13.01,2013-02-01 11:52:00,
2013-02-01 06:57:00,28.0,13.6,29.83,SSE,168,2.2,2.7,54,0.00,,,0.00,VWS V13.01,2013-02-01 11:57:00,
2013-02-01 07:02:00,28.0,13.1,29.83,SSE,152,0.0,0.0,53,0.00,,,0.00,VWS V13.01,2013-02-01 12:02:00,
2013-02-01 07:07:00,28.0,13.6,29.83,SSE,153,0.0,3.1,54,0.00,,,0.00,VWS V13.01,2013-02-01 12:07:00,
2013-02-01 07:12:00,28.0,13.6,29.83,SSE,153,0.0,2.7,54,0.00,,,0.00,VWS V13.01,2013-02-01 12:12:00,
2013-02-01 07:17:00,28.0,13.6,29.83,SSE,152,0.0,3.1,54,0.00,,,0.00,VWS V13.01,2013-02-01 12:17:00,
2013-02-01 07:22:00,28.0,14.0,29.83,SSE,152,0.0,0.0,55,0.00,,,0.00,VWS V13.01,2013-02-01 12:22:00,
2013-02-01 07:27:00,28.0,13.6,29.83,SSE,152,0.0,2.2,54,0.00,,,0.00,VWS V13.01,2013-02-01 12:27:00,
2013-02-01 07:32:00,28.0,13.1,29.83,SSE,152,0.0,2.7,53,0.00,,,0.00,VWS V13.01,2013-02-01 12:32:00,
2013-02-01 07:37:00,28.0,13.6,29.83,SSE,152,0.0,0.0,54,0.00,,,0.00,VWS V13.01,2013-02-01 12:37:00,
2013-02-01 07:42:00,28.2,14.1,29.83,SSE,152,0.0,0.0,55,0.00,,,0.00,VWS V13.01,2013-02-01 12:42:00,
2013-02-01 07:47:00,28.2,14.1,29.83,SSE,152,0.0,0.0,55,0.00,,,0.00,VWS V13.01,2013-02-01 12:47:00,
2013-02-01 07:52:00,28.4,14.7,29.83,SSE,152,0.0,0.0,56,0.00,,,0.00,VWS V13.01,2013-02-01 12:52:00,
2013-02-01 07:57:00,28.4,14.3,29.83,SSE,152,0.0,0.0,55,0.00,,,0.00,VWS V13.01,2013-02-01 12:57:00,
2013-02-01 08:02:00,28.4,13.9,29.83,SW,235,0.0,2.7,54,0.00,,,0.00,VWS V13.01,2013-02-01 13:02:00,
2013-02-01 08:07:00,28.6,14.1,29.83,ESE,116,0.0,3.1,54,0.00,,,0.00,VWS V13.01,2013-02-01 13:07:00,
2013-02-01 08:12:00,28.6,14.5,29.83,ESE,117,0.0,2.2,55,0.00,,,0.00,VWS V13.01,2013-02-01 13:12:00,
2013-02-01 08:17:00,28.8,13.8,29.83,ESE,116,0.0,3.1,53,0.00,,,0.00,VWS V13.01,2013-02-01 13:17:00,
2013-02-01 08:22:00,28.8,13.4,29.83,SSE,155,0.0,3.6,52,0.00,,,0.00,VWS V13.01,2013-02-01 13:22:00,
2013-02-01 08:27:00,28.8,13.4,29.83,SW,223,0.0,2.2,52,0.00,,,0.00,VWS V13.01,2013-02-01 13:27:00,
2013-02-01 08:32:00,28.9,13.1,29.83,SE,140,0.0,3.6,51,0.00,,,0.00,VWS V13.01,2013-02-01 13:32:00,
2013-02-01 08:37:00,28.9,13.1,29.83,West,271,2.2,3.1,51,0.00,,,0.00,VWS V13.01,2013-02-01 13:37:00,
2013-02-01 08:41:00,28.9,12.6,29.83,SE,140,0.0,3.6,50,0.00,,,0.00,VWS V13.01,2013-02-01 13:41:00,
2013-02-01 08:46:00,29.1,12.8,29.83,SE,134,0.0,0.0,50,0.00,,,0.00,VWS V13.01,2013-02-01 13:46:00,
2013-02-01 08:51:00,29.1,12.8,29.83,SW,216,3.1,3.1,50,0.00,,,0.00,VWS V13.01,2013-02-01 13:51:00,
2013-02-01 08:56:00,29.5,13.1,29.83,West,269,0.0,3.6,50,0.00,,,0.00,VWS V13.01,2013-02-01 13:56:00,
2013-02-01 09:02:00,29.3,13.4,29.83,SW,232,2.7,2.7,51,0.00,,,0.00,VWS V13.01,2013-02-01 14:02:00,
2013-02-01 09:07:00,29.3,13.4,29.83,SW,215,3.1,4.0,51,0.00,,,0.00,VWS V13.01,2013-02-01 14:07:00,
2013-02-01 09:12:00,29.3,13.9,29.83,SSW,213,2.2,3.1,52,0.00,,,0.00,VWS V13.01,2013-02-01 14:12:00,
2013-02-01 09:17:00,29.3,13.4,29.83,SSE,148,2.7,3.1,51,0.00,,,0.00,VWS V13.01,2013-02-01 14:17:00,
2013-02-01 09:22:00,29.5,13.6,29.83,SSE,160,0.0,2.7,51,0.00,,,0.00,VWS V13.01,2013-02-01 14:22:00,
2013-02-01 09:27:00,29.5,13.6,29.83,WSW,245,0.0,3.1,51,0.00,,,0.00,VWS V13.01,2013-02-01 14:27:00,
2013-02-01 09:32:00,29.3,12.5,29.86,SW,222,3.1,3.6,49,0.00,,,0.00,VWS V13.01,2013-02-01 14:32:00,
2013-02-01 09:36:00,29.3,12.5,29.86,SW,222,3.1,3.1,49,0.00,,,0.00,VWS V13.01,2013-02-01 14:36:00,
2013-02-01 09:41:00,29.5,12.7,29.86,SW,222,2.2,3.6,49,0.00,,,0.00,VWS V13.01,2013-02-01 14:41:00,
2013-02-01 09:46:00,29.5,12.7,29.86,SW,215,2.7,2.7,49,0.00,,,0.00,VWS V13.01,2013-02-01 14:46:00,
2013-02-01 09:51:00,29.5,12.7,29.86,SSW,209,0.0,2.7,49,0.00,,,0.00,VWS V13.01,2013-02-01 14:51:00,
2013-02-01 09:56:00,29.7,12.9,29.86,South,191,2.7,4.0,49,0.00,,,0.00,VWS V13.01,2013-02-01 14:56:00,
2013-02-01 10:01:00,30.0,13.2,29.86,West,272,3.6,3.6,49,0.00,,,0.00,VWS V13.01,2013-02-01 15:01:00,
2013-02-01 10:06:00,29.7,12.9,29.86,SW,215,4.0,4.0,49,0.00,,,0.00,VWS V13.01,2013-02-01 15:06:00,
2013-02-01 10:11:00,30.0,13.2,29.86,SSE,160,3.1,3.6,49,0.00,,,0.00,VWS V13.01,2013-02-01 15:11:00,
2013-02-01 10:16:00,30.4,13.1,29.86,West,275,2.2,3.1,48,0.00,,,0.00,VWS V13.01,2013-02-01 15:16:00,
2013-02-01 10:21:00,30.6,13.2,29.86,West,276,2.2,2.2,48,0.00,,,0.00,VWS V13.01,2013-02-01 15:21:00,
2013-02-01 10:26:00,30.6,13.2,29.86,SW,226,0.0,0.0,48,0.00,,,0.00,VWS V13.01,2013-02-01 15:26:00,
2013-02-01 10:31:00,30.6,13.2,29.86,NW,309,2.2,3.6,48,0.00,,,0.00,VWS V13.01,2013-02-01 15:31:00,
2013-02-01 10:36:00,30.4,13.1,29.86,SW,220,2.2,4.9,48,0.00,,,0.00,VWS V13.01,2013-02-01 15:36:00,
2013-02-01 10:41:00,30.4,13.1,29.86,West,263,2.7,4.9,48,0.00,,,0.00,VWS V13.01,2013-02-01 15:41:00,
2013-02-01 10:46:00,30.2,12.9,29.86,West,259,2.2,3.1,48,0.00,,,0.00,VWS V13.01,2013-02-01 15:46:00,
2013-02-01 10:51:00,30.2,12.9,29.86,West,261,2.7,3.6,48,0.00,,,0.00,VWS V13.01,2013-02-01 15:51:00,
2013-02-01 10:56:00,30.2,12.9,29.86,West,263,0.0,3.1,48,0.00,,,0.00,VWS V13.01,2013-02-01 15:56:00,
2013-02-01 11:01:00,30.2,12.9,29.86,West,272,0.0,2.2,48,0.00,,,0.00,VWS V13.01,2013-02-01 16:01:00,
2013-02-01 11:06:00,30.4,13.1,29.86,SW,223,2.2,3.1,48,0.00,,,0.00,VWS V13.01,2013-02-01 16:06:00,
2013-02-01 11:11:00,31.1,13.7,29.86,NW,313,3.1,3.1,48,0.00,,,0.00,VWS V13.01,2013-02-01 16:11:00,
2013-02-01 11:16:00,31.3,13.4,29.86,West,264,2.2,4.9,47,0.00,,,0.00,VWS V13.01,2013-02-01 16:16:00,
2013-02-01 11:21:00,31.1,13.2,29.86,SW,230,3.6,6.3,47,0.00,,,0.00,VWS V13.01,2013-02-01 16:21:00,
2013-02-01 11:26:00,30.9,13.1,29.86,WSW,241,3.1,3.1,47,0.00,,,0.00,VWS V13.01,2013-02-01 16:26:00,
2013-02-01 11:31:00,31.3,13.9,29.86,North,3,0.0,2.2,48,0.00,,,0.00,VWS V13.01,2013-02-01 16:31:00,
2013-02-01 11:36:00,31.3,13.4,29.86,West,272,2.2,4.0,47,0.00,,,0.00,VWS V13.01,2013-02-01 16:36:00,
2013-02-01 11:41:00,31.5,13.6,29.86,WNW,297,2.2,2.7,47,0.00,,,0.00,VWS V13.01,2013-02-01 16:41:00,
2013-02-01 11:46:00,32.0,14.1,29.86,WSW,250,2.7,7.6,47,0.00,,,0.00,VWS V13.01,2013-02-01 16:46:00,
2013-02-01 11:51:00,32.0,14.1,29.86,West,272,3.1,5.8,47,0.00,,,0.00,VWS V13.01,2013-02-01 16:51:00,
2013-02-01 11:56:00,31.3,12.4,29.86,SSE,155,3.6,5.4,45,0.00,,,0.00,VWS V13.01,2013-02-01 16:56:00,
2013-02-01 12:01:00,31.1,13.2,29.86,SSE,156,2.7,3.1,47,0.00,,,0.00,VWS V13.01,2013-02-01 17:01:00,
2013-02-01 12:06:00,30.9,13.1,29.86,SSW,201,3.1,3.1,47,0.00,,,0.00,VWS V13.01,2013-02-01 17:06:00,
2013-02-01 12:11:00,31.1,13.2,29.86,SSE,151,4.0,4.0,47,0.00,,,0.00,VWS V13.01,2013-02-01 17:11:00,
2013-02-01 12:16:00,31.5,12.6,29.86,SW,220,4.9,6.3,45,0.00,,,0.00,VWS V13.01,2013-02-01 17:16:00,
2013-02-01 12:21:00,31.5,12.6,29.86,SW,214,2.2,4.0,45,0.00,,,0.00,VWS V13.01,2013-02-01 17:21:00,
2013-02-01 12:26:00,31.8,13.9,29.86,SW,233,3.6,3.6,47,0.00,,,0.00,VWS V13.01,2013-02-01 17:26:00,
2013-02-01 12:31:00,32.0,13.1,29.86,West,264,0.0,0.0,45,0.00,,,0.00,VWS V13.01,2013-02-01 17:31:00,
2013-02-01 12:36:00,31.6,12.8,29.86,SSE,160,4.0,4.0,45,0.00,,,0.00,VWS V13.01,2013-02-01 17:36:00,
2013-02-01 12:41:00,31.5,12.6,29.86,WSW,246,0.0,4.0,45,0.00,,,0.00,VWS V13.01,2013-02-01 17:41:00,
2013-02-01 12:46:00,31.5,12.6,29.86,West,281,0.0,0.0,45,0.00,,,0.00,VWS V13.01,2013-02-01 17:46:00,
2013-02-01 12:51:00,31.6,12.8,29.86,NW,314,2.2,3.1,45,0.00,,,0.00,VWS V13.01,2013-02-01 17:51:00,
2013-02-01 12:56:00,31.3,10.9,29.86,WSW,247,3.6,3.6,42,0.00,,,0.00,VWS V13.01,2013-02-01 17:56:00,
2013-02-01 13:01:00,31.1,10.7,29.86,NW,315,2.7,2.7,42,0.00,,,0.00,VWS V13.01,2013-02-01 18:01:00,
2013-02-01 13:06:00,31.6,11.2,29.86,NNW,333,3.6,3.6,42,0.00,,,0.00,VWS V13.01,2013-02-01 18:06:00,
2013-02-01 13:11:00,32.2,11.7,29.86,West,268,2.7,2.7,42,0.00,,,0.00,VWS V13.01,2013-02-01 18:11:00,
2013-02-01 13:16:00,32.2,11.7,29.86,WSW,255,2.7,2.7,42,0.00,,,0.00,VWS V13.01,2013-02-01 18:16:00,
2013-02-01 13:21:00,31.6,11.2,29.86,NW,308,3.6,3.6,42,0.00,,,0.00,VWS V13.01,2013-02-01 18:21:00,
2013-02-01 13:26:00,32.0,11.5,29.86,WSW,244,0.0,0.0,42,0.00,,,0.00,VWS V13.01,2013-02-01 18:26:00,
2013-02-01 13:31:00,32.2,11.7,29.86,WSW,253,0.0,4.0,42,0.00,,,0.00,VWS V13.01,2013-02-01 18:31:00,
2013-02-01 13:36:00,32.5,12.0,29.86,North,7,3.1,3.1,42,0.00,,,0.00,VWS V13.01,2013-02-01 18:36:00,
2013-02-01 13:41:00,32.4,10.8,29.86,WSW,256,5.4,5.4,40,0.00,,,0.00,VWS V13.01,2013-02-01 18:41:00,
2013-02-01 13:46:00,32.0,11.5,29.89,SSW,210,2.2,2.2,42,0.00,,,0.00,VWS V13.01,2013-02-01 18:46:00,
2013-02-01 13:51:00,31.6,10.1,29.89,WSW,244,3.6,3.6,40,0.00,,,0.00,VWS V13.01,2013-02-01 18:51:00,
2013-02-01 13:56:00,31.5,9.9,29.89,WSW,254,2.7,2.7,40,0.00,,,0.00,VWS V13.01,2013-02-01 18:56:00,
2013-02-01 14:01:00,31.3,9.8,29.89,SW,230,0.0,0.0,40,0.00,,,0.00,VWS V13.01,2013-02-01 19:01:00,
2013-02-01 14:06:00,31.8,11.4,29.89,NNE,25,3.1,3.1,42,0.00,,,0.00,VWS V13.01,2013-02-01 19:06:00,
2013-02-01 14:11:00,31.6,11.2,29.89,West,261,4.0,4.0,42,0.00,,,0.00,VWS V13.01,2013-02-01 19:11:00,
2013-02-01 14:16:00,31.8,10.3,29.89,SW,229,2.2,2.2,40,0.00,,,0.00,VWS V13.01,2013-02-01 19:16:00,
2013-02-01 14:21:00,32.2,10.6,29.89,WSW,246,2.7,2.7,40,0.00,,,0.00,VWS V13.01,2013-02-01 19:21:00,
2013-02-01 14:26:00,32.7,12.2,29.89,SSE,168,3.1,4.9,42,0.00,,,0.00,VWS V13.01,2013-02-01 19:26:00,
2013-02-01 14:31:00,32.9,12.3,29.92,WSW,256,3.6,3.6,42,0.00,,,0.00,VWS V13.01,2013-02-01 19:31:00,
2013-02-01 14:36:00,32.2,11.7,29.92,WSW,252,0.0,0.0,42,0.00,,,0.00,VWS V13.01,2013-02-01 19:36:00,
2013-02-01 14:41:00,32.4,10.8,29.92,WSW,252,6.3,6.3,40,0.00,,,0.00,VWS V13.01,2013-02-01 19:41:00,
2013-02-01 14:46:00,32.0,10.4,29.92,NNW,332,4.0,4.0,40,0.00,,,0.00,VWS V13.01,2013-02-01 19:46:00,
2013-02-01 14:51:00,32.0,11.5,29.92,ESE,104,0.0,0.0,42,0.00,,,0.00,VWS V13.01,2013-02-01 19:51:00,
2013-02-01 14:56:00,32.5,12.0,29.92,SW,235,2.2,2.2,42,0.00,,,0.00,VWS V13.01,2013-02-01 19:56:00,
2013-02-01 15:01:00,32.5,12.0,29.92,ENE,68,0.0,3.1,42,0.00,,,0.00,VWS V13.01,2013-02-01 20:01:00,
2013-02-01 15:06:00,32.4,11.9,29.92,ENE,68,2.2,2.2,42,0.00,,,0.00,VWS V13.01,2013-02-01 20:06:00,
2013-02-01 15:11:00,32.0,11.5,29.92,NNW,338,2.2,2.2,42,0.00,,,0.00,VWS V13.01,2013-02-01 20:11:00,
2013-02-01 15:16:00,31.6,14.2,29.92,SSE,147,0.0,2.7,48,0.00,,,0.00,VWS V13.01,2013-02-01 20:16:00,
2013-02-01 15:21:00,31.3,13.4,29.95,West,267,3.6,3.6,47,0.00,,,0.00,VWS V13.01,2013-02-01 20:21:00,
2013-02-01 15:26:00,31.5,13.6,29.95,WSW,240,4.0,4.0,47,0.00,,,0.00,VWS V13.01,2013-02-01 20:26:00,
2013-02-01 15:31:00,31.3,13.4,29.95,ENE,65,2.2,2.2,47,0.00,,,0.00,VWS V13.01,2013-02-01 20:31:00,
2013-02-01 15:36:00,30.9,12.1,29.95,WNW,284,0.0,2.2,45,0.00,,,0.00,VWS V13.01,2013-02-01 20:36:00,
2013-02-01 15:41:00,30.6,12.7,29.95,WNW,301,0.0,0.0,47,0.00,,,0.00,VWS V13.01,2013-02-01 20:41:00,
2013-02-01 15:46:00,31.1,13.2,29.95,SE,144,0.0,0.0,47,0.00,,,0.00,VWS V13.01,2013-02-01 20:46:00,
2013-02-01 15:51:00,31.5,13.6,29.95,SW,216,3.1,3.1,47,0.00,,,0.00,VWS V13.01,2013-02-01 20:51:00,
2013-02-01 15:56:00,31.6,13.7,29.95,WNW,282,2.2,2.2,47,0.00,,,0.00,VWS V13.01,2013-02-01 20:56:00,
2013-02-01 16:01:00,31.1,13.2,29.95,WSW,246,2.7,4.0,47,0.00,,,0.00,VWS V13.01,2013-02-01 21:01:00,
2013-02-01 16:06:00,30.4,13.1,29.98,NW,324,4.0,4.9,48,0.00,,,0.00,VWS V13.01,2013-02-01 21:06:00,
2013-02-01 16:11:00,29.3,14.7,29.98,SSE,149,6.3,6.3,54,0.00,,,0.00,VWS V13.01,2013-02-01 21:11:00,
2013-02-01 16:16:00,28.6,16.5,30.01,South,174,0.0,0.0,60,0.00,,,0.00,VWS V13.01,2013-02-01 21:16:00,
2013-02-01 16:21:00,27.7,15.6,30.01,SW,218,0.0,0.0,60,0.00,,,0.00,VWS V13.01,2013-02-01 21:21:00,
2013-02-01 16:26:00,27.7,16.0,30.01,SW,219,3.6,3.6,61,0.00,,,0.00,VWS V13.01,2013-02-01 21:26:00,
2013-02-01 16:31:00,27.7,15.2,30.01,SSW,196,2.7,2.7,59,0.00,,,0.00,VWS V13.01,2013-02-01 21:31:00,
2013-02-01 16:36:00,27.5,15.1,30.01,SSE,151,0.0,2.2,59,0.00,,,0.00,VWS V13.01,2013-02-01 21:36:00,
2013-02-01 16:41:00,27.5,14.7,30.01,SSE,164,3.1,3.1,58,0.00,,,0.00,VWS V13.01,2013-02-01 21:41:00,
2013-02-01 16:46:00,27.7,14.9,30.01,SSE,157,0.0,0.0,58,0.00,,,0.00,VWS V13.01,2013-02-01 21:46:00,
2013-02-01 16:51:00,27.7,14.9,30.01,WSW,241,0.0,2.7,58,0.00,,,0.00,VWS V13.01,2013-02-01 21:51:00,
2013-02-01 16:56:00,27.5,14.7,30.01,SW,233,2.7,2.7,58,0.00,,,0.00,VWS V13.01,2013-02-01 21:56:00,
2013-02-01 17:01:00,27.5,15.1,30.01,SSE,150,3.1,3.1,59,0.00,,,0.00,VWS V13.01,2013-02-01 22:01:00,
2013-02-01 17:05:00,27.5,15.1,30.01,SSW,213,2.7,2.7,59,0.00,,,0.00,VWS V13.01,2013-02-01 22:05:00,
2013-02-01 17:10:00,27.5,14.7,30.01,SW,220,0.0,0.0,58,0.00,,,0.00,VWS V13.01,2013-02-01 22:10:00,
2013-02-01 17:15:00,27.5,13.1,30.04,SSE,167,0.0,0.0,54,0.00,,,0.00,VWS V13.01,2013-02-01 22:15:00,
2013-02-01 17:20:00,27.5,13.5,30.04,SW,228,2.7,4.0,55,0.00,,,0.00,VWS V13.01,2013-02-01 22:20:00,
2013-02-01 17:25:00,27.3,13.3,30.04,South,174,2.2,2.2,55,0.00,,,0.00,VWS V13.01,2013-02-01 22:25:00,
2013-02-01 17:30:00,27.5,13.9,30.04,South,186,0.0,0.0,56,0.00,,,0.00,VWS V13.01,2013-02-01 22:30:00,
2013-02-01 17:35:00,27.5,14.7,30.07,SSE,153,4.0,4.0,58,0.00,,,0.00,VWS V13.01,2013-02-01 22:35:00,
2013-02-01 17:40:00,27.1,14.7,30.07,East,90,2.2,2.2,59,0.00,,,0.00,VWS V13.01,2013-02-01 22:40:00,
2013-02-01 17:45:00,27.1,14.7,30.07,SW,218,0.0,3.6,59,0.00,,,0.00,VWS V13.01,2013-02-01 22:45:00,
2013-02-01 17:50:00,26.6,16.4,30.07,SW,218,3.6,3.6,65,0.00,,,0.00,VWS V13.01,2013-02-01 22:50:00,
2013-02-01 17:55:00,26.2,16.1,30.07,South,176,3.1,3.1,65,0.00,,,0.00,VWS V13.01,2013-02-01 22:55:00,
2013-02-01 18:00:00,26.1,17.3,30.07,SSE,168,0.0,0.0,69,0.00,,,0.00,VWS V13.01,2013-02-01 23:00:00,
2013-02-01 18:05:00,26.1,17.3,30.10,SW,215,2.7,2.7,69,0.00,,,0.00,VWS V13.01,2013-02-01 23:05:00,
2013-02-01 18:10:00,26.1,17.3,30.10,SW,216,2.7,2.7,69,0.00,,,0.00,VWS V13.01,2013-02-01 23:10:00,
2013-02-01 18:15:00,26.1,16.3,30.10,SW,217,0.0,0.0,66,0.00,,,0.00,VWS V13.01,2013-02-01 23:15:00,
2013-02-01 18:20:00,26.1,16.3,30.10,SW,216,0.0,0.0,66,0.00,,,0.00,VWS V13.01,2013-02-01 23:20:00,
2013-02-01 18:25:00,25.9,15.4,30.10,ESE,120,2.7,2.7,64,0.00,,,0.00,VWS V13.01,2013-02-01 23:25:00,
2013-02-01 18:30:00,26.1,15.2,30.10,SW,220,2.2,2.2,63,0.00,,,0.00,VWS V13.01,2013-02-01 23:30:00,
2013-02-01 18:35:00,25.9,15.4,30.10,SSE,154,0.0,0.0,64,0.00,,,0.00,VWS V13.01,2013-02-01 23:35:00,
2013-02-01 18:40:00,25.9,15.0,30.10,SSW,194,0.0,0.0,63,0.00,,,0.00,VWS V13.01,2013-02-01 23:40:00,
2013-02-01 18:45:00,25.9,14.7,30.10,South,173,2.2,2.2,62,0.00,,,0.00,VWS V13.01,2013-02-01 23:45:00,
2013-02-01 18:50:00,25.9,15.0,30.13,South,174,0.0,0.0,63,0.00,,,0.00,VWS V13.01,2013-02-01 23:50:00,
2013-02-01 18:55:00,25.9,13.9,30.13,SE,128,2.7,2.7,60,0.00,,,0.00,VWS V13.01,2013-02-01 23:55:00,
2013-02-01 19:00:00,25.9,13.9,30.13,SSW,201,0.0,0.0,60,0.00,,,0.00,VWS V13.01,2013-02-02 00:00:00,
2013-02-01 19:05:00,25.9,14.7,30.13,SE,144,2.2,2.2,62,0.00,,,0.00,VWS V13.01,2013-02-02 00:05:00,
2013-02-01 19:10:00,25.9,15.4,30.13,SE,144,0.0,0.0,64,0.00,,,0.00,VWS V13.01,2013-02-02 00:10:00,
2013-02-01 19:15:00,25.7,15.9,30.13,SSE,147,0.0,0.0,66,0.00,,,0.00,VWS V13.01,2013-02-02 00:15:00,
2013-02-01 19:20:00,25.7,15.9,30.13,South,178,0.0,0.0,66,0.00,,,0.00,VWS V13.01,2013-02-02 00:20:00,
2013-02-01 19:25:00,25.9,16.5,30.13,SW,215,4.0,4.0,67,0.00,,,0.00,VWS V13.01,2013-02-02 00:25:00,
2013-02-01 19:30:00,25.7,15.6,30.13,SW,219,2.7,2.7,65,0.00,,,0.00,VWS V13.01,2013-02-02 00:30:00,
2013-02-01 19:35:00,25.5,16.1,30.16,SSW,212,0.0,0.0,67,0.00,,,0.00,VWS V13.01,2013-02-02 00:35:00,
2013-02-01 19:40:00,25.2,16.8,30.16,SW,225,0.0,0.0,70,0.00,,,0.00,VWS V13.01,2013-02-02 00:40:00,
2013-02-01 19:45:00,25.0,16.6,30.16,SW,225,0.0,0.0,70,0.00,,,0.00,VWS V13.01,2013-02-02 00:45:00,
2013-02-01 19:50:00,25.0,16.6,30.16,SW,225,0.0,0.0,70,0.00,,,0.00,VWS V13.01,2013-02-02 00:50:00,
2013-02-01 19:55:00,24.6,16.9,30.16,SW,226,0.0,0.0,72,0.00,,,0.00,VWS V13.01,2013-02-02 00:55:00,
2013-02-01 20:00:00,24.8,17.1,30.16,SW,226,0.0,0.0,72,0.00,,,0.00,VWS V13.01,2013-02-02 01:00:00,
2013-02-01 20:05:00,24.8,17.1,30.16,SW,225,0.0,0.0,72,0.00,,,0.00,VWS V13.01,2013-02-02 01:05:00,
2013-02-01 20:10:00,24.6,16.9,30.16,SW,225,0.0,0.0,72,0.00,,,0.00,VWS V13.01,2013-02-02 01:10:00,
2013-02-01 20:15:00,24.6,16.9,30.16,SW,225,2.2,2.2,72,0.00,,,0.00,VWS V13.01,2013-02-02 01:15:00,
2013-02-01 20:20:00,24.6,16.6,30.16,SSE,147,2.7,2.7,71,0.00,,,0.00,VWS V13.01,2013-02-02 01:20:00,
2013-02-01 20:25:00,24.6,16.2,30.16,SSE,147,0.0,0.0,70,0.00,,,0.00,VWS V13.01,2013-02-02 01:25:00,
2013-02-01 20:30:00,24.4,15.7,30.19,SSW,193,0.0,0.0,69,0.00,,,0.00,VWS V13.01,2013-02-02 01:30:00,
2013-02-01 20:35:00,24.4,15.7,30.19,SSW,208,0.0,0.0,69,0.00,,,0.00,VWS V13.01,2013-02-02 01:35:00,
2013-02-01 20:40:00,24.4,15.7,30.19,SSW,208,0.0,0.0,69,0.00,,,0.00,VWS V13.01,2013-02-02 01:40:00,
2013-02-01 20:45:00,24.4,15.7,30.19,SSW,206,0.0,0.0,69,0.00,,,0.00,VWS V13.01,2013-02-02 01:45:00,
2013-02-01 20:50:00,24.4,14.7,30.19,SE,130,2.2,2.2,66,0.00,,,0.00,VWS V13.01,2013-02-02 01:50:00,
2013-02-01 20:55:00,24.4,14.7,30.19,SSW,196,0.0,0.0,66,0.00,,,0.00,VWS V13.01,2013-02-02 01:55:00,
2013-02-01 21:00:00,24.6,14.6,30.19,SSW,196,0.0,0.0,65,0.00,,,0.00,VWS V13.01,2013-02-02 02:00:00,
2013-02-01 21:05:00,24.6,14.6,30.19,SE,145,0.0,0.0,65,0.00,,,0.00,VWS V13.01,2013-02-02 02:05:00,
2013-02-01 21:10:00,24.4,14.0,30.19,WNW,282,2.2,2.2,64,0.00,,,0.00,VWS V13.01,2013-02-02 02:10:00,
2013-02-01 21:15:00,24.4,13.7,30.19,SE,133,0.0,0.0,63,0.00,,,0.00,VWS V13.01,2013-02-02 02:15:00,
2013-02-01 21:20:00,24.4,13.7,30.19,SW,217,3.6,3.6,63,0.00,,,0.31,VWS V13.01,2013-02-02 02:20:00,
2013-02-01 21:25:00,24.4,14.0,30.19,SW,219,3.1,3.1,64,0.00,,,0.00,VWS V13.01,2013-02-02 02:25:00,
2013-02-01 21:30:00,24.4,14.0,30.19,East,87,0.0,3.1,64,0.00,,,0.00,VWS V13.01,2013-02-02 02:30:00,
2013-02-01 21:35:00,24.4,13.3,30.19,East,87,0.0,0.0,62,0.00,,,0.00,VWS V13.01,2013-02-02 02:35:00,
2013-02-01 21:40:00,24.4,13.7,30.19,SW,224,0.0,3.1,63,0.00,,,0.00,VWS V13.01,2013-02-02 02:40:00,
2013-02-01 21:45:00,24.3,13.1,30.19,ESE,119,0.0,0.0,62,0.00,,,0.00,VWS V13.01,2013-02-02 02:45:00,
2013-02-01 21:50:00,24.3,13.1,30.22,WSW,238,2.7,2.7,62,0.00,,,0.00,VWS V13.01,2013-02-02 02:50:00,
2013-02-01 21:55:00,24.3,13.1,30.22,SW,229,0.0,0.0,62,0.00,,,0.00,VWS V13.01,2013-02-02 02:55:00,
2013-02-01 22:00:00,24.1,12.6,30.22,SSE,156,3.1,3.1,61,0.00,,,0.00,VWS V13.01,2013-02-02 03:00:00,
2013-02-01 22:05:00,24.1,12.6,30.22,SW,216,0.0,3.1,61,0.00,,,0.00,VWS V13.01,2013-02-02 03:05:00,
2013-02-01 22:10:00,24.1,12.6,30.22,SSW,211,0.0,2.7,61,0.00,,,0.00,VWS V13.01,2013-02-02 03:10:00,
2013-02-01 22:15:00,24.1,12.6,30.22,SSW,211,0.0,0.0,61,0.00,,,0.00,VWS V13.01,2013-02-02 03:15:00,
2013-02-01 22:20:00,24.1,12.6,30.22,SW,228,0.0,0.0,61,0.00,,,0.00,VWS V13.01,2013-02-02 03:20:00,
2013-02-01 22:25:00,24.1,12.2,30.22,SSW,192,0.0,0.0,60,0.00,,,0.00,VWS V13.01,2013-02-02 03:25:00,
2013-02-01 22:30:00,24.3,12.4,30.22,SSW,208,0.0,3.1,60,0.00,,,0.00,VWS V13.01,2013-02-02 03:30:00,
2013-02-01 22:35:00,24.3,12.4,30.22,WSW,251,0.0,0.0,60,0.00,,,0.00,VWS V13.01,2013-02-02 03:35:00,
2013-02-01 22:40:00,24.3,12.4,30.22,SW,229,2.2,3.1,60,0.00,,,0.00,VWS V13.01,2013-02-02 03:40:00,
2013-02-01 22:45:00,24.3,12.4,30.22,SSW,196,0.0,2.2,60,0.00,,,0.00,VWS V13.01,2013-02-02 03:45:00,
2013-02-01 22:50:00,24.1,11.8,30.22,SW,217,0.0,2.7,59,0.00,,,0.00,VWS V13.01,2013-02-02 03:50:00,
2013-02-01 22:55:00,23.9,11.7,30.22,South,185,0.0,2.2,59,0.00,,,0.00,VWS V13.01,2013-02-02 03:55:00,
2013-02-01 23:00:00,23.9,12.1,30.22,SSW,201,0.0,0.0,60,0.00,,,0.00,VWS V13.01,2013-02-02 04:00:00,
2013-02-01 23:05:00,23.9,11.7,30.24,SSW,204,0.0,4.0,59,0.00,,,0.00,VWS V13.01,2013-02-02 04:05:00,
2013-02-01 23:10:00,23.9,11.7,30.24,SE,138,0.0,4.0,59,0.00,,,0.00,VWS V13.01,2013-02-02 04:10:00,
2013-02-01 23:15:00,23.7,11.5,30.24,South,175,0.0,0.0,59,0.00,,,0.00,VWS V13.01,2013-02-02 04:15:00,
2013-02-01 23:20:00,23.7,11.5,30.24,SE,136,0.0,2.2,59,0.00,,,0.00,VWS V13.01,2013-02-02 04:20:00,
2013-02-01 23:25:00,23.7,11.5,30.24,ESE,121,0.0,0.0,59,0.00,,,0.00,VWS V13.01,2013-02-02 04:25:00,
2013-02-01 23:30:00,23.5,11.3,30.24,SE,139,2.2,2.2,59,0.00,,,0.00,VWS V13.01,2013-02-02 04:30:00,
2013-02-01 23:35:00,23.5,11.3,30.24,SW,234,0.0,2.2,59,0.00,,,0.00,VWS V13.01,2013-02-02 04:35:00,
2013-02-01 23:40:00,23.5,11.3,30.24,SW,234,0.0,0.0,59,0.00,,,0.00,VWS V13.01,2013-02-02 04:40:00,
2013-02-01 23:45:00,23.5,11.3,30.24,SSE,156,0.0,0.0,59,0.00,,,0.00,VWS V13.01,2013-02-02 04:45:00,
2013-02-01 23:50:00,23.7,11.5,30.24,SSE,156,0.0,0.0,59,0.00,,,0.00,VWS V13.01,2013-02-02 04:50:00,
2013-02-01 23:55:00,23.7,11.5,30.24,SSE,156,0.0,0.0,59,0.00,,,0.00,VWS V13.01,2013-02-02 04:55:00,